Location: Columbia
(38.9520°N, 92.3340°W)
Time: 05:52:54
(UTC-05:00)

SL-08 RB Rocket - Visible Passes

Search period start: 03 September 2015 00:00
Search period end: 13 September 2015 00:00
Orbit: 650 x 685 km, 98.1° (Epoch: 01 September)

Date Brightness Start Highest point End Pass type
(mag) Time Alt. Az. Time Alt. Az. Time Alt. Az.
03 Sep 5.5 22:02:00 22° NNE 22:02:00 22° NNE 22:04:11 10° N visible
03 Sep 6.6 23:40:10 14° NW 23:40:10 14° NW 23:41:04 10° NW visible
04 Sep 5.5 22:34:26 26° N 22:34:26 26° N 22:36:35 10° N visible
05 Sep 6.0 21:28:43 13° NE 21:28:43 13° NE 21:29:46 10° NNE visible
05 Sep 6.1 23:06:53 21° NNW 23:06:53 21° NNW 23:08:31 10° NNW visible
06 Sep 5.7 22:01:09 20° NNE 22:01:09 20° NNE 22:02:59 10° N visible
06 Sep 6.7 23:39:19 13° NW 23:39:19 13° NW 23:39:56 10° NW visible
07 Sep 5.8 22:33:36 23° N 22:33:36 23° N 22:35:23 10° N visible
08 Sep 6.1 21:27:52 12° NE 21:27:52 12° NE 21:28:31 10° NNE visible
08 Sep 6.2 23:06:02 19° NNW 23:06:02 19° NNW 23:07:20 10° NNW visible
09 Sep 5.8 22:00:19 18° NNE 22:00:19 18° NNE 22:01:45 10° N visible
09 Sep 6.8 23:38:28 11° NW 23:38:28 11° NW 23:38:47 10° NW visible
10 Sep 6.0 22:32:45 20° N 22:32:45 20° N 22:34:11 10° N visible
11 Sep 6.2 21:27:02 11° NE 21:27:02 11° NE 21:27:14 10° NE visible
11 Sep 6.4 23:05:12 16° NNW 23:05:12 16° NNW 23:06:09 10° NNW visible
12 Sep 6.0 21:59:28 15° NNE 21:59:28 15° NNE 22:00:32 10° NNE visible
